Temperature
15 14 14 14 14 14 14 14 14 14 14 14 14 14 14 14 14 13 14 14 14 14 14 14 13 13 13 13 13 13 13 13 13 13 12 12 12 12 12 12 11 11 11
14 14 14 14 14 14 14 14 14 14 14 14 14 14 13 13 13 13 13 14 14 14 14 14 13 13 13 13 13 13 13 13 13 12 12 12 12 12 12 11 11 11 11
14 14 14 14 14 14 14 14 14 14 14 14 14 14 13 13 13 13 13 13 14 14 14 13 13 13 13 13 13 13 13 13 13 12 12 12 12 12 11 11 11 11 11
14 14 14 14 14 14 14 14 14 14 14 14 13 13 13 13 13 13 13 13 13 13 13 13 13 13 13 13 13 13 13 13 13 12 12 12 11 11 11 11 11 11 10
14 14 14 14 14 14 14 14 13 13 13 13 13 13 13 13 13 13 13 13 13 13 13 13 13 13 13 13 13 13 13 13 12 12 12 12 11 11 11 11 10 10 10
13 13 13 13 13 13 13 13 13 13 13 13 13 13 13 13 13 13 13 13 13 13 13 13 13 13 13 13 13 13 13 12 12 12 12 11 11 11 11 10 10 10 10
13 13 13 13 13 13 13 13 13 13 13 13 12 12 12 12 12 12 13 13 13 13 13 13 13 12 12 13 13 12 12 12 12 12 11 11 11 11 10 10 10 10 9
13 12 13 13 13 13 12 12 12 12 12 12 12 11 11 12 12 12 12 12 12 12 12 12 12 12 12 12 12 12 12 12 12 11 11 11 11 10 10 10 9 9 9
12 12 12 12 12 12 12 12 12 12 12 12 11 11 11 12 12 12 12 12 12 12 12 12 12 12 12 12 12 12 11 11 11 11 11 10 10 10 10 10 9 9 9
12 12 12 12 12 12 12 12 12 12 12 11 11 11 11 11 11 11 11 12 12 12 12 12 12 12 12 12 12 11 11 11 11 11 10 10 10 10 10 9 9 9 9
11 11 11 11 11 12 11 11 11 11 11 11 11 11 11 11 11 11 11 11 11 11 11 11 11 11 11 11 11 11 11 10 10 10 10 10 10 9 9 9 9 9 9
10 11 11 11 11 11 11 11 11 11 11 11 10 10 10 10 10 10 10 11 11 11 11 11 11 11 11 11 11 10 10 10 10 10 9 9 9 9 9 9 8 8 8
10 10 10 10 11 11 11 11 10 10 10 10 10 10 10 10 10 10 10 10 10 10 10 10 10 10 10 10 10 10 10 9 9 9 9 9 9 9 8 8 8 8 8
9 10 10 10 10 10 10 10 10 10 10 10 10 10 10 10 9 9 9 9 9 9 10 10 10 10 10 10 10 9 9 9 9 9 9 9 8 8 8 8 7 7 7
9 9 9 9 9 9 9 10 10 10 10 10 9 9 9 9 9 9 9 8 8 8 8 9 9 9 9 9 9 9 9 9 8 8 8 8 8 8 8 7 7 7 7
8 8 9 9 9 9 9 9 9 9 9 9 9 9 8 8 8 8 8 8 8 7 7 8 8 9 9 9 9 8 8 8 8 8 8 8 8 7 7 7 7 7 7
8 8 8 8 8 8 8 8 8 8 8 8 8 8 8 7 7 7 7 7 7 7 7 7 7 8 8 8 8 8 8 7 7 7 7 7 7 7 7 7 7 6 6
7 8 8 8 8 7 7 7 7 7 7 7 7 7 7 7 7 7 6 6 6 6 6 6 6 7 7 7 7 7 7 7 7 7 7 7 7 6 6 6 6 6 6
7 7 7 7 7 7 7 7 7 7 7 6 6 6 6 6 6 6 6 6 5 5 5 5 6 6 6 6 6 6 6 6 6 6 6 6 6 6 6 5 5 5 5
6 6 6 6 6 6 6 6 6 6 6 6 6 5 5 5 5 5 5 5 5 5 5 5 5 5 5 5 5 5 5 5 5 5 5 5 5 5 5 5 5 4 4
6 6 6 6 5 5 5 5 5 5 5 5 5 5 4 4 4 4 4 4 4 4 4 4 4 4 4 4 4 5 5 5 5 5 5 5 5 4 4 4 4 4 4
5 5 5 5 5 5 5 5 4 4 4 4 4 4 4 4 4 4 4 4 3 3 3 3 3 4 3 4 4 4 4 4 4 4 4 4 4 4 4 4 4 3 3
5 5 4 4 4 4 4 4 4 4 4 4 4 4 4 3 3 3 3 3 3 3 3 3 3 3 3 3 3 3 3 3 3 4 3 3 3 3 3 3 3 3 3
4 4 4 4 4 3 3 3 3 3 3 3 3 3 2 2 2 2 2 2 2 2 2 3 3 3 3 3 3 3 3 3 3 3 3 2 3 3 2 2 2 2 2
3 3 3 3 3 3 2 2 2 2 2 2 2 2 2 2 2 2 2 1 2 2 2 2 2 2 2 2 2 2 2 2 2 2 2 2 2 2 2 1 1 1 1
2 2 2 2 2 2 1 1 1 1 1 1 1 1 1 1 1 1 1 1 1 1 1 1 1 1 1 1 2 2 2 1 1 1 1 1 1 1 0 0 0 0 0
Wind_Speed
10 9 9 10 11 11 11 10 9 9 9 9 8 8 8 8 7 6 5 6 7 6 6 6 6 6 6 6 6 5 5 5 5 4 3 3 4 3 4 4 4 5 6
10 10 10 10 10 11 11 10 10 8 7 7 7 8 8 7 7 7 6 6 8 8 7 8 8 7 7 7 7 7 6 7 6 5 5 4 4 4 4 4 4 4 5
12 10 10 9 10 11 11 9 9 8 6 6 7 7 7 8 7 8 7 7 7 8 8 8 8 8 8 8 8 7 7 7 7 7 7 6 5 4 4 4 4 4 5
14 11 10 9 10 10 9 8 8 8 7 7 7 6 6 6 8 8 7 7 7 7 8 8 8 8 7 8 8 8 8 8 8 8 8 7 7 6 5 5 4 5 5
14 11 9 9 10 8 8 8 8 8 8 7 6 6 6 7 7 8 8 9 8 8 7 7 8 8 7 8 9 9 9 9 8 8 8 8 8 7 6 5 5 5 6
14 11 9 10 9 8 8 8 9 8 7 6 6 6 7 7 7 8 8 8 8 9 9 8 8 8 9 9 9 10 10 10 10 10 9 8 8 7 7 6 5 6 6
13 11 9 9 9 9 9 10 8 8 7 5 4 5 6 8 8 7 7 7 8 9 9 10 9 8 8 10 11 10 11 11 11 11 10 10 9 9 8 7 7 6 6
11 10 10 9 9 8 9 10 9 7 6 6 5 4 4 6 7 8 8 8 8 8 9 10 11 10 10 9 9 11 11 12 12 12 12 11 11 10 10 9 8 8 7
9 9 10 10 9 9 9 10 10 10 7 7 7 5 4 6 4 6 8 8 8 8 8 9 11 12 12 11 10 11 12 12 12 12 12 13 12 12 11 10 10 9 8
7 8 8 9 9 8 9 9 9 8 8 7 6 7 6 4 4 4 6 8 10 10 10 8 10 11 12 11 11 11 13 13 13 13 14 14 13 13 11 11 10 9 7
5 6 6 7 7 7 8 8 8 9 8 8 7 5 6 5 7 6 6 6 7 9 9 9 9 9 11 12 12 13 14 14 15 15 16 15 14 13 12 10 9 7 6
3 4 5 6 6 6 7 7 8 10 9 9 8 7 7 6 6 7 7 7 8 8 9 8 9 9 10 12 13 13 14 15 16 16 16 15 12 10 9 8 7 7 6
3 4 4 5 5 5 6 6 7 8 9 9 9 8 8 8 6 7 8 8 8 7 7 8 9 9 10 11 12 14 16 17 17 17 16 14 12 10 9 8 8 7 7
3 3 3 3 4 4 5 6 6 7 7 9 9 9 8 8 7 8 8 7 8 8 8 9 7 9 10 11 12 14 14 17 18 17 16 15 12 11 10 9 8 8 7
2 2 3 3 4 4 5 5 5 6 7 8 8 8 8 7 7 7 7 8 8 10 12 10 7 8 9 11 12 13 14 16 18 17 16 14 12 12 11 10 9 8 8
2 2 3 3 3 3 4 4 4 5 6 6 6 8 8 7 7 7 7 8 8 10 11 8 7 7 8 9 12 13 13 14 17 17 16 14 14 13 13 12 11 10 9
2 2 3 3 3 3 4 4 4 4 5 5 6 7 9 8 7 7 7 7 8 9 12 9 6 6 8 9 9 11 12 12 13 17 17 16 16 15 14 13 12 11 10
1 2 3 3 3 3 4 4 4 5 5 5 6 7 8 7 9 8 7 8 9 10 11 12 8 7 8 9 9 9 8 10 11 14 17 17 16 16 15 14 13 11 10
1 1 2 2 2 3 3 4 4 5 5 5 6 6 7 7 9 8 8 8 8 8 9 10 9 7 6 6 7 7 8 8 9 11 15 16 16 17 16 15 13 12 10
2 1 1 1 1 2 2 3 3 4 5 5 6 6 6 7 8 8 8 9 8 9 9 9 8 7 6 5 6 7 7 7 7 7 10 12 14 16 15 15 14 12 11
3 3 2 2 2 2 2 3 3 4 5 5 6 6 6 7 9 9 8 8 8 9 9 9 9 7 7 6 7 7 8 6 6 6 6 6 7 8 10 13 13 13 12
4 4 4 3 4 3 5 6 5 4 4 5 5 6 6 6 8 10 11 12 12 11 11 10 10 10 11 9 8 7 7 6 6 5 6 6 5 6 6 8 12 13 13
5 5 4 5 5 5 7 7 8 5 5 5 6 6 5 6 8 8 9 11 12 14 14 12 12 12 11 9 9 9 9 9 7 5 5 5 5 6 5 8 12 13 13
4 4 5 5 5 6 9 10 10 7 5 6 6 7 7 7 7 8 9 9 9 10 10 10 10 11 9 9 9 9 9 7 2 3 5 4 4 4 4 6 12 13 12
5 5 5 6 6 7 9 10 10 6 5 7 7 7 7 7 9 10 8 9 10 9 8 9 10 11 11 11 9 6 6 6 5 4 4 3 3 2 2 4 7 12 11
5 5 5 5 6 6 9 10 11 6 6 6 7 7 7 9 11 11 9 9 9 9 8 7 7 7 8 8 9 8 7 7 4 4 5 5 4 3 2 2 3 6 8
Wind_Direction
196 193 193 192 192 192 194 195 198 196 202 205 210 214 216 220 223 224 213 208 228 240 246 247 246 239 238 241 246 251 252 245 245 244 259 269 273 280 283 285 294 312 317
199 195 194 194 195 196 197 197 200 198 204 208 214 218 223 226 229 230 232 216 220 234 243 247 248 246 247 247 249 250 251 241 239 244 250 257 263 265 270 279 289 303 315
203 198 197 196 197 196 195 197 199 200 205 210 219 221 227 231 233 236 236 237 227 224 233 242 244 246 252 252 248 249 247 236 240 245 248 249 253 252 257 271 281 290 306
205 201 201 199 196 193 193 196 198 200 204 211 219 221 228 231 237 238 236 235 236 233 225 228 238 245 254 252 248 248 243 238 243 245 246 247 248 242 246 263 271 276 289
205 202 204 201 195 193 195 197 202 204 206 210 219 226 231 233 237 235 234 233 235 235 236 222 229 239 245 251 250 251 246 242 243 245 246 245 243 242 246 253 262 274 281
205 203 205 202 196 194 193 197 203 206 209 206 215 228 233 235 236 235 235 232 233 235 238 237 233 233 234 244 248 248 246 244 245 246 245 242 242 245 248 252 261 270 278
206 204 204 201 196 197 198 197 199 204 207 197 206 229 238 236 237 234 234 236 233 233 236 235 237 239 233 230 237 243 245 245 245 245 240 241 243 245 250 252 257 263 272
204 204 202 201 199 198 200 200 198 202 203 195 200 214 235 235 231 233 232 234 238 232 234 236 236 236 237 234 230 231 238 241 243 244 242 243 245 247 253 254 257 260 266
201 203 203 202 201 200 201 202 200 203 204 202 205 209 223 239 242 228 231 231 233 236 236 233 235 236 237 236 234 226 229 237 242 247 247 245 244 246 252 255 255 255 258
201 204 205 203 202 202 203 205 204 208 208 206 211 224 238 246 235 238 228 232 234 237 237 235 235 235 235 235 234 232 228 232 239 246 248 247 247 247 250 253 252 249 251
204 206 206 206 203 203 206 206 207 211 214 214 209 213 228 238 240 243 251 244 243 241 240 239 239 236 234 234 234 233 227 231 240 246 248 247 248 249 250 250 246 242 242
199 209 208 206 207 207 209 211 214 216 218 221 219 216 220 222 228 238 252 255 255 250 242 241 242 240 236 236 236 233 230 233 239 245 248 247 244 244 238 235 239 242 244
205 211 214 214 213 216 216 217 221 223 225 226 225 227 230 234 236 242 252 261 263 265 254 245 239 239 236 236 235 228 231 233 236 237 239 238 237 232 227 226 234 238 241
216 217 220 225 223 221 222 220 221 225 228 230 229 232 237 239 239 240 247 254 264 265 256 256 245 236 234 234 234 224 232 230 231 233 234 233 225 221 218 222 230 236 244
218 212 217 225 224 221 222 224 225 228 231 234 236 237 240 242 243 246 249 247 250 263 264 259 252 239 234 234 229 229 233 229 228 229 228 223 218 212 212 215 222 230 238
217 211 213 222 230 237 231 224 231 235 236 238 239 240 243 244 244 244 245 249 250 256 265 260 255 254 237 237 232 231 233 228 226 225 223 217 211 209 211 214 219 225 232
230 224 225 223 226 236 239 230 230 236 242 249 250 246 246 247 247 247 247 248 250 253 260 269 267 258 241 242 239 234 230 228 227 223 222 219 214 212 213 215 217 222 229
283 245 231 229 234 240 239 237 237 239 243 250 256 258 255 251 250 253 252 251 252 251 255 265 269 259 249 243 241 238 235 230 230 222 221 223 220 217 214 213 215 220 226
317 267 228 235 246 252 250 247 245 249 251 257 262 264 264 260 255 255 259 258 257 259 258 263 266 266 262 248 243 244 239 236 234 223 222 225 223 217 214 212 212 214 219
355 324 292 275 278 265 272 272 262 262 265 266 267 266 265 262 260 260 257 258 261 262 262 263 265 264 261 251 234 237 239 234 233 225 224 224 221 214 212 210 208 208 212
32 31 33 24 3 328 316 318 299 277 272 274 276 275 273 268 264 264 263 262 262 261 262 260 262 263 257 241 234 233 238 237 238 222 220 221 215 212 208 209 207 205 207
28 27 25 22 17 6 359 341 325 296 286 283 286 288 286 277 277 275 270 265 258 256 258 260 259 257 256 253 244 235 232 233 241 210 208 222 209 212 208 204 203 204 206
21 19 16 16 12 5 0 350 344 324 301 295 295 297 300 294 290 283 280 276 267 262 259 258 259 257 257 251 242 235 227 228 240 201 196 217 207 217 209 203 199 202 204
15 12 9 5 3 0 0 355 349 337 320 313 308 302 297 297 295 296 291 284 280 276 273 270 264 264 265 258 242 235 235 232 245 205 192 213 203 211 198 200 200 199 201
14 9 3 3 2 359 0 353 345 333 324 319 315 308 301 298 302 305 296 289 290 289 287 281 281 279 273 263 251 235 219 213 229 215 198 199 181 176 183 196 196 195 196
6 1 2 1 358 354 357 353 346 339 329 321 318 315 309 309 311 310 301 292 289 294 298 300 295 289 281 265 247 230 218 216 213 208 190 178 164 155 169 182 184 190 193
Height
1521 1523 1525 1528 1530 1532 1534 1536 1537 1539 1541 1542 1543 1544 1544 1545 1545 1544 1544 1543 1543 1543 1542 1542 1542 1541 1540 1540 1539 1539 1538 1537 1536 1535 1534 1533 1532 1531 1530 1529 1528 1527 1526
1518 1520 1522 1524 1526 1529 1531 1533 1535 1536 1538 1540 1541 1542 1542 1543 1543 1543 1542 1542 1541 1541 1541 1540 1540 1539 1539 1538 1537 1537 1536 1535 1534 1533 1532 1531 1530 1529 1528 1527 1526 1525 1524
1514 1516 1518 1521 1523 1525 1527 1530 1532 1533 1535 1536 1538 1539 1540 1540 1540 1540 1540 1540 1539 1539 1539 1538 1538 1537 1537 1536 1535 1535 1534 1533 1532 1531 1530 1529 1528 1527 1526 1525 1524 1523 1522
1510 1512 1514 1517 1519 1522 1524 1526 1528 1530 1532 1533 1535 1536 1536 1537 1537 1537 1537 1537 1537 1537 1536 1536 1536 1535 1534 1534 1533 1532 1531 1530 1530 1529 1528 1527 1526 1525 1524 1523 1522 1521 1520
1505 1508 1510 1513 1515 1517 1520 1522 1524 1526 1528 1530 1531 1532 1533 1533 1534 1534 1534 1534 1534 1534 1533 1533 1532 1532 1531 1531 1530 1529 1529 1528 1527 1526 1525 1524 1523 1522 1521 1520 1519 1519 1518
1501 1503 1506 1508 1511 1513 1515 1518 1520 1522 1524 1526 1527 1528 1529 1529 1530 1530 1530 1530 1530 1530 1530 1529 1529 1528 1528 1527 1527 1526 1526 1525 1524 1523 1522 1521 1520 1519 1518 1517 1516 1515 1514
1496 1499 1501 1504 1506 1508 1511 1513 1516 1518 1520 1522 1523 1524 1525 1525 1525 1525 1526 1526 1526 1526 1526 1525 1525 1525 1524 1523 1523 1523 1522 1521 1520 1520 1519 1518 1517 1516 1515 1514 1513 1512 1511
1491 1494 1496 1498 1501 1504 1506 1509 1511 1513 1515 1517 1519 1520 1521 1522 1520 1520 1521 1521 1521 1522 1521 1521 1521 1520 1520 1519 1518 1518 1518 1517 1516 1516 1515 1514 1513 1512 1511 1510 1509 1508 1507
1486 1489 1491 1494 1497 1499 1501 1504 1506 1508 1510 1512 1513 1516 1517 1516 1516 1516 1515 1516 1516 1516 1516 1516 1516 1515 1515 1514 1514 1513 1513 1512 1512 1511 1511 1509 1509 1508 1507 1506 1505 1504 1503
1480 1484 1486 1489 1491 1494 1496 1499 1500 1503 1505 1506 1508 1510 1512 1512 1512 1510 1510 1510 1510 1511 1511 1511 1511 1510 1510 1509 1509 1508 1508 1507 1507 1506 1506 1505 1504 1503 1502 1501 1500 1500 1499
1476 1479 1482 1484 1486 1489 1491 1493 1495 1497 1499 1501 1502 1503 1505 1506 1507 1506 1505 1504 1505 1504 1505 1505 1504 1504 1504 1503 1503 1502 1502 1502 1501 1501 1500 1500 1499 1498 1497 1496 1496 1495 1494
1472 1474 1477 1480 1481 1483 1486 1488 1490 1492 1494 1495 1496 1497 1499 1500 1500 1501 1500 1498 1498 1498 1498 1498 1498 1498 1497 1497 1496 1496 1496 1495 1495 1495 1494 1494 1493 1492 1492 1491 1490 1490 1489
1467 1469 1472 1474 1476 1478 1481 1483 1485 1486 1488 1489 1490 1491 1492 1493 1494 1495 1495 1493 1492 1491 1491 1491 1491 1491 1491 1490 1489 1489 1489 1489 1488 1488 1488 1487 1487 1487 1486 1486 1485 1485 1485
1464 1466 1468 1470 1472 1473 1475 1477 1479 1480 1482 1483 1483 1485 1486 1487 1488 1489 1489 1489 1486 1484 1484 1483 1483 1483 1483 1483 1483 1482 1482 1481 1481 1481 1481 1480 1480 1480 1480 1480 1480 1480 1479
1461 1462 1464 1466 1468 1469 1471 1472 1473 1474 1476 1476 1477 1478 1479 1480 1481 1481 1482 1483 1482 1478 1475 1476 1476 1476 1476 1476 1475 1475 1474 1474 1474 1474 1474 1473 1473 1473 1474 1473 1474 1474 1473
1457 1459 1460 1462 1463 1465 1466 1467 1467 1468 1469 1470 1470 1471 1472 1473 1473 1474 1474 1474 1474 1473 1469 1468 1468 1468 1468 1468 1468 1467 1467 1467 1467 1467 1467 1466 1466 1467 1467 1467 1467 1467 1467
1454 1455 1457 1458 1459 1460 1460 1461 1461 1462 1463 1463 1464 1464 1464 1465 1465 1466 1466 1466 1466 1466 1463 1461 1462 1461 1460 1460 1460 1460 1459 1459 1459 1459 1459 1459 1459 1459 1460 1460 1460 1461 1461
1451 1452 1453 1454 1454 1455 1455 1456 1456 1456 1456 1457 1457 1456 1456 1457 1457 1458 1458 1458 1458 1458 1457 1454 1453 1453 1452 1452 1452 1452 1452 1452 1452 1451 1452 1452 1452 1452 1452 1453 1454 1454 1455
1448 1448 1448 1449 1450 1450 1450 1451 1451 1450 1450 1450 1450 1450 1449 1449 1449 1450 1450 1450 1450 1450 1449 1447 1445 1444 1444 1444 1444 1444 1444 1444 1444 1444 1444 1444 1444 1445 1445 1446 1447 1448 1449
1445 1444 1445 1445 1446 1446 1446 1445 1445 1445 1445 1445 1445 1444 1443 1442 1442 1442 1442 1442 1442 1441 1440 1439 1438 1436 1436 1435 1435 1435 1435 1435 1436 1436 1436 1436 1437 1437 1438 1440 1441 1442 1443
1442 1442 1442 1442 1442 1442 1441 1441 1440 1440 1440 1439 1439 1438 1437 1436 1436 1436 1435 1434 1434 1433 1432 1431 1430 1429 1428 1427 1427 1427 1427 1428 1428 1428 1429 1429 1430 1431 1431 1433 1435 1437 1438
1440 1440 1439 1439 1439 1438 1437 1437 1436 1435 1435 1434 1433 1432 1431 1430 1430 1429 1428 1427 1427 1426 1424 1423 1421 1420 1419 1419 1419 1419 1420 1420 1420 1421 1422 1422 1424 1424 1425 1427 1429 1431 1432
1439 1439 1438 1437 1436 1435 1434 1433 1432 1431 1430 1429 1428 1427 1426 1425 1424 1423 1421 1420 1419 1418 1418 1416 1414 1412 1411 1411 1411 1411 1412 1412 1412 1413 1415 1415 1416 1417 1419 1421 1423 1425 1427
1438 1437 1436 1435 1434 1433 1432 1430 1429 1427 1426 1425 1423 1422 1421 1419 1418 1417 1415 1413 1412 1411 1410 1408 1406 1405 1405 1404 1404 1404 1404 1405 1406 1407 1408 1409 1410 1411 1413 1415 1418 1420 1422
1437 1436 1435 1433 1432 1431 1429 1427 1425 1423 1422 1420 1419 1418 1416 1414 1413 1412 1410 1408 1405 1404 1403 1401 1399 1398 1397 1397 1397 1397 1397 1397 1397 1399 1401 1403 1403 1406 1408 1410 1413 1415 1417
1436 1435 1433 1432 1430 1428 1427 1425 1422 1420 1418 1417 1415 1413 1412 1410 1408 1406 1405 1402 1399 1397 1396 1394 1393 1392 1390 1389 1389 1390 1390 1391 1391 1392 1394 1397 1398 1400 1403 1405 1408 1411 1413